Back to catalog

COSMOS 1275 DEB

AlivePO
NORAD 12672·DEBRIS·🇷🇺 Russia

Launched Jun 4, 1981 from Plesetsk Cosmodrome

Loading…

Next Passes (next 24 hours)

TLE

FreshSource: Space-Track

Epoch: Sep 14, 2026, 13:13 UTC

1 12672U 81053AC  26257.55087304  .00000306  00000-0  25994-3 0  9990
2 12672  82.9395 103.0076 0027050   9.3911  19.2337 13.84148684270775

Track COSMOS 1275 DEB in real time with AllMySat

Download on the App Store